Papa, Hungary

4:23 PM CEST on June 27, 2017 (GMT +0200)
Papa

Weather History for LHPA - October, 2012

Change the Weather History Date:

Tuesday, October 9, 2012

  Actual Average Record
Temperature  
Mean Temperature 52 °F -  
Max Temperature 62 °F - - ()
Min Temperature 42 °F - - ()
Degree Days  
Heating Degree Days 13    
Growing Degree Days 2 (Base 50)    
Moisture  
Dew Point 40 °F    
Average Humidity 64    
Maximum Humidity 87    
Minimum Humidity 39    
Precipitation  
Precipitation 0.00 in - - ()
Sea Level Pressure  
Sea Level Pressure 29.90 in    
Wind  
Wind Speed 7 mph ()    
Max Wind Speed 18 mph    
Max Gust Speed 29 mph    
Visibility 5.4 miles    
Events Rain    
T = Trace of Precipitation, MM = Missing Value Source: Averaged Metar Reports

Daily Weather History Graph

Daily Weather History Graph

Search for Another Location

Airport or City:

Trip Planner

Search our weather history database for the weather conditions in past years. The results will help you decide how hot, cold, wet, or windy it might be!

Date:

Astronomy

Oct. 09, 2012 Rise Set
Actual Time 7:00 AM CEST 6:13 PM CEST
Civil Twilight 6:29 AM CEST 6:43 PM CEST
Nautical Twilight 5:54 AM CEST 7:19 PM CEST
Astronomical Twilight 5:18 AM CEST 7:54 PM CEST
Moon No Moon Rise 2:51 PM CEST (10/9)
Length of Visible Light 12h 14m
Length of Day
11h 13m
Last Quarter, 39% of the Moon is Illuminated
Oct 9
Last Quarter
Oct 15
New
Oct 22
First Quarter
Oct 29
Full
Nov 7
Last Quarter

Hourly Weather History & Observations

Time (CEST) Temp. Windchill Dew Point Humidity Pressure Visibility Wind Dir Wind Speed Gust Speed Precip Events Conditions
12:15 AM 42.8 °F 40.2 °F 39.2 °F 87% 30.04 in - SSE 4.5 mph - N/A   Clear
12:45 AM 42.8 °F 40.2 °F 39.2 °F 87% 30.04 in - SSE 4.5 mph - N/A   Clear
1:15 AM 44.6 °F 42.3 °F 39.2 °F 81% 30.01 in - SSE 4.5 mph - N/A   Clear
1:45 AM 46.4 °F 44.4 °F 39.2 °F 76% 30.01 in - SSE 4.5 mph - N/A   Clear
2:15 AM 46.4 °F 44.4 °F 39.2 °F 76% 30.01 in - South 4.5 mph - N/A   Clear
2:45 AM 46.4 °F 42.0 °F 39.2 °F 76% 29.98 in - South 8.9 mph - N/A   Clear
3:15 AM 46.4 °F 43.0 °F 39.2 °F 76% 29.98 in - SSE 6.7 mph - N/A   Clear
3:45 AM - - - N/A% - 5.0 mi South 8.9 mph - N/A Rain Rain
4:15 AM 46.4 °F 43.0 °F 39.2 °F 76% 29.95 in - South 6.7 mph - N/A   Clear
4:45 AM 44.6 °F 39.8 °F 39.2 °F 81% 29.92 in - SSE 8.9 mph - N/A   Clear
5:15 AM 44.6 °F 39.8 °F 39.2 °F 81% 29.92 in - SSE 8.9 mph - N/A   Clear
5:45 AM 44.6 °F 39.8 °F 37.4 °F 76% 29.92 in - SSE 8.9 mph - N/A   Clear
6:15 AM 46.4 °F 42.0 °F 39.2 °F 76% 29.92 in - South 8.9 mph - N/A   Clear
6:45 AM - - - N/A% - 5.0 mi South 8.9 mph - N/A Rain Rain
7:15 AM 46.4 °F 41.2 °F 39.2 °F 76% 29.89 in - SSE 11.2 mph - N/A   Clear
7:45 AM 48.2 °F - 39.2 °F 71% 29.89 in - South 8.9 mph - N/A   Clear
8:45 AM 51.8 °F - 39.2 °F 62% 29.89 in - South 11.2 mph - N/A   Clear
9:15 AM 51.8 °F - 39.2 °F 62% 29.89 in - South 13.4 mph - N/A   Clear
9:45 AM - - - N/A% - 3.7 mi South 11.2 mph - N/A Rain Rain
10:29 AM 57.2 °F - 39.2 °F 51% 29.89 in - South 15.7 mph 26.8 mph N/A   Clear
10:45 AM 57.2 °F - 39.2 °F 51% 29.89 in - SSW 15.7 mph 26.8 mph N/A   Clear
11:15 AM 59.0 °F - 37.4 °F 45% 29.86 in - South 17.9 mph - N/A   Clear
11:45 AM 60.8 °F - 39.2 °F 45% 29.86 in - South 17.9 mph 29.1 mph N/A   Clear
12:15 PM 60.8 °F - 37.4 °F 42% 29.86 in - SSW 17.9 mph - N/A   Clear
12:45 PM - - - N/A% - 5.0 mi South 11.2 mph - N/A Rain Rain
1:15 PM 60.8 °F - 37.4 °F 42% 29.86 in - South 13.4 mph - N/A   Clear
1:45 PM 62.6 °F - 37.4 °F 39% 29.83 in - South 13.4 mph - N/A   Clear
2:15 PM 60.8 °F - 37.4 °F 42% 29.83 in - SSW 8.9 mph - N/A   Clear
2:45 PM 62.6 °F - 37.4 °F 39% 29.83 in - South 8.9 mph - N/A   Clear
3:15 PM 60.8 °F - 37.4 °F 42% 29.83 in - SSW 8.9 mph - N/A   Clear
3:45 PM - - - N/A% - 5.0 mi SSW 11.2 mph - N/A Rain Rain
4:15 PM 60.8 °F - 39.2 °F 45% 29.83 in - SW 8.9 mph - N/A   Clear
4:45 PM 60.8 °F - 39.2 °F 45% 29.83 in - SW 8.9 mph - N/A   Clear
5:15 PM 59.0 °F - 39.2 °F 48% 29.83 in - WSW 4.5 mph - N/A   Clear
5:45 PM 57.2 °F - 39.2 °F 51% 29.83 in - SW 6.7 mph - N/A   Clear
6:15 PM 55.4 °F - 41.0 °F 58% 29.83 in - South 6.7 mph - N/A   Clear
6:45 PM - - - N/A% - 5.0 mi Variable 4.5 mph - N/A Rain Rain
7:15 PM 53.6 °F - 42.8 °F 67% 29.83 in - South 4.5 mph - N/A   Clear
7:45 PM 51.8 °F - 42.8 °F 71% 29.86 in - South 4.5 mph - N/A   Clear
8:15 PM 51.8 °F - 42.8 °F 71% 29.86 in - SSE 2.2 mph - N/A   Clear
8:45 PM 53.6 °F - 44.6 °F 72% 29.86 in - SSE 2.2 mph - N/A   Clear
9:15 PM 53.6 °F - 44.6 °F 72% 29.86 in 6.2 mi SE 2.2 mph - N/A   Mostly Cloudy
9:45 PM - - - N/A% - 5.0 mi Variable 4.5 mph - N/A Rain Light Rain
10:15 PM 53.6 °F - 46.4 °F 77% 29.89 in 6.2 mi SSW 2.2 mph - N/A   Overcast
10:45 PM 53.6 °F - 46.4 °F 77% 29.89 in 6.2 mi WSW 2.2 mph - N/A   Overcast
11:15 PM 53.6 °F - 46.4 °F 77% 29.92 in 6.2 mi WNW 2.2 mph - N/A   Overcast
11:45 PM 55.4 °F - 46.4 °F 72% 29.92 in 6.2 mi WNW 2.2 mph - N/A   Overcast